Вернуться в каталог

PSLV R/B

АктивенSSO
NORAD 41878·ROCKET BODY·🇮🇳 India

Запущен Dec 7, 2016 с Satish Dhawan Space Centre

Loading…

Ближайшие Пролёты (ближайшие 24 часа)

TLE

СвежийSource: Space-Track

Эпоха: Sep 14, 2026, 05:28 UTC

1 41878U 16074B   26257.22804371  .00000052  00000-0  41630-4 0  9990
2 41878  98.6273 344.0310 0001756 327.0392  33.0678 14.24179463507645

Отслеживайте PSLV R/B в реальном времени с AllMySat

Download on the App Store